Simultaneous Nadir Overpasses (SNOs) Predictions

Prediction of SNOs between LANDSAT-8 and METOP-B Satellite Orbit:

Table of predicted SNOs for the next 14.0 days since TLE Epoch: 5/7/2022
Index Date (LANDSAT-8) Time (LANDSAT-8) Lat,Lon (LANDSAT-8) SZA (LANDSAT-8 ) Date (METOP-B) Time (METOP-B) Lat,Lon (METOP-B) SZA (METOP-B ) Distance(km) Time Diff (sec)
1 05/09/2022 21:13:15 -81.16, 82.23 114.09 05/09/2022 21:12:33 -81.15, 82.21 114.12 0.70 42
2 05/09/2022 22:02:41 81.16,-110.04 65.92 05/09/2022 22:03:13 81.16,-110.09 65.93 0.87 32
3 05/12/2022 16:47:31 -81.14, 148.47 114.84 05/12/2022 16:46:53 -81.15, 148.57 114.84 1.77 38
4 05/12/2022 17:36:56 81.17, -43.46 65.22 05/12/2022 17:37:32 81.17, -43.39 65.25 1.24 36
5 05/15/2022 12:21:47 -81.15,-145.06 115.51 05/15/2022 12:21:14 -81.14,-145.13 115.53 1.26 33
6 05/15/2022 13:11:12 81.17, 22.99 64.55 05/15/2022 13:11:53 81.17, 22.88 64.55 1.93 41
7 05/18/2022 07:56:03 -81.14, -78.72 116.16 05/18/2022 07:55:35 -81.14, -78.89 116.19 2.86 28
8 05/18/2022 08:45:28 81.16, 89.30 63.89 05/18/2022 08:46:13 81.17, 89.46 63.94 2.99 45



Historial Predications of SNOs between LANDSAT-8 and METOP-B
